Change the Weather History Date:

Thursday, January 23, 2014

  Actual Average (KGVT) Record (KGVT)
Temperature  
Mean Temperature 34 °F -  
Max Temperature 43 °F 54 °F 71 °F (2002)
Min Temperature 25 °F 38 °F 19 °F (2003)
Degree Days  
Heating Degree Days 31    
Moisture  
Dew Point 14 °F    
Average Humidity 42    
Maximum Humidity 54    
Minimum Humidity 31    
Precipitation  
Precipitation 0.00 in - - ()
Sea Level Pressure  
Sea Level Pressure 30.53 in    
Wind  
Wind Speed 13 mph (NNE)    
Max Wind Speed 22 mph    
Max Gust Speed 29 mph    
Visibility 10 miles    
Events      
Averages and records for this station are not official NWS values.
T = Trace of Precipitation, MM = Missing Value Source: NWS Daily Summary

Daily Weather History Graph

Daily Weather History Graph

Search for Another Location

Airport or City:

Trip Planner

Search our weather history database for the weather conditions in past years. The results will help you decide how hot, cold, wet, or windy it might be!

Date:

Astronomy

Jan. 23, 2014 Rise Set
Actual Time 7:23 AM CST 5:45 PM CST
Civil Twilight 6:56 AM CST 6:12 PM CST
Nautical Twilight 6:26 AM CST 6:42 PM CST
Astronomical Twilight 5:57 AM CST 7:11 PM CST
Moon No Moon Rise 11:22 AM CST (1/23)
Length of Visible Light 11h 15m
Length of Day
10h 22m
Waning Gibbous, 55% of the Moon is Illuminated
Jan 23
Waning Gibbous
Jan 23
Last Quarter
Jan 30
New
Feb 6
First Quarter
Feb 14
Full

Hourly Weather History & Observations

Time (CST) Temp. Windchill Dew Point Humidity Pressure Visibility Wind Dir Wind Speed Gust Speed Precip Events Conditions
12:15 AM 43.2 °F 38.4 °F 22.6 °F 44% 30.23 in 10.0 mi NNE 8.1 mph - N/A   Clear
12:35 AM 42.8 °F 37.5 °F 22.6 °F 45% 30.23 in 10.0 mi NE 9.2 mph - N/A   Clear
12:55 AM 42.8 °F 37.0 °F 23.0 °F 46% 30.24 in 10.0 mi NNE 10.4 mph - N/A   Clear
1:15 AM 42.4 °F 36.1 °F 22.8 °F 46% 30.25 in 10.0 mi NNE 11.5 mph - N/A   Clear
1:35 AM 42.1 °F 35.2 °F 22.6 °F 46% 30.25 in 10.0 mi NNE 12.7 mph - N/A   Clear
1:55 AM 41.9 °F 36.3 °F 22.8 °F 47% 30.25 in 10.0 mi NNE 9.2 mph - N/A   Clear
2:15 AM 41.5 °F 35.0 °F 23.0 °F 48% 30.27 in 10.0 mi NNE 11.5 mph - N/A   Clear
2:35 AM 41.2 °F 35.0 °F 23.0 °F 48% 30.28 in 10.0 mi NE 10.4 mph 18.4 mph N/A   Clear
2:55 AM 41.0 °F 33.5 °F 22.6 °F 48% 30.29 in 10.0 mi NE 13.8 mph - N/A   Clear
3:15 AM 40.6 °F 33.8 °F 22.6 °F 49% 30.29 in 10.0 mi NNE 11.5 mph - N/A   Clear
3:35 AM 40.3 °F 33.4 °F 22.8 °F 50% 30.29 in 10.0 mi NE 11.5 mph 16.1 mph N/A   Clear
3:55 AM 40.1 °F 34.7 °F 22.1 °F 49% 30.30 in 10.0 mi NE 8.1 mph - N/A   Clear
4:15 AM 39.9 °F 33.9 °F 21.7 °F 48% 30.31 in 10.0 mi NE 9.2 mph - N/A   Scattered Clouds
4:35 AM 39.7 °F 32.3 °F 21.2 °F 48% 30.32 in 10.0 mi NE 12.7 mph 20.7 mph N/A   Mostly Cloudy
4:55 AM 39.6 °F 30.6 °F 19.0 °F 44% 30.33 in 10.0 mi NE 17.3 mph 21.9 mph N/A   Overcast
5:15 AM 39.6 °F 31.3 °F 18.0 °F 42% 30.34 in 10.0 mi NE 15.0 mph 19.6 mph N/A   Overcast
5:35 AM 39.4 °F 31.4 °F 17.1 °F 41% 30.36 in 10.0 mi NE 13.8 mph 21.9 mph N/A   Overcast
5:55 AM 39.2 °F 32.0 °F 16.3 °F 40% 30.37 in 10.0 mi NE 11.5 mph 17.3 mph N/A   Overcast
6:15 AM 39.2 °F 32.0 °F 15.3 °F 38% 30.39 in 10.0 mi NE 11.5 mph 17.3 mph N/A   Overcast
6:35 AM 39.2 °F 30.8 °F 14.5 °F 37% 30.39 in 10.0 mi NE 15.0 mph 20.7 mph N/A   Overcast
6:55 AM 38.8 °F 31.6 °F 14.5 °F 37% 30.41 in 10.0 mi NE 11.5 mph 18.4 mph N/A   Mostly Cloudy
7:15 AM 39.0 °F 31.8 °F 14.4 °F 37% 30.43 in 10.0 mi NE 11.5 mph 18.4 mph N/A   Mostly Cloudy
7:35 AM 38.8 °F 31.2 °F 14.2 °F 37% 30.45 in 10.0 mi NE 12.7 mph 17.3 mph N/A   Mostly Cloudy
7:55 AM 38.7 °F 31.8 °F 14.2 °F 37% 30.44 in 10.0 mi NE 10.4 mph - N/A   Mostly Cloudy
8:15 AM 38.7 °F 32.4 °F 14.7 °F 38% 30.46 in 10.0 mi NE 9.2 mph - N/A   Mostly Cloudy
8:35 AM 39.2 °F 32.0 °F 14.9 °F 37% 30.47 in 10.0 mi NE 11.5 mph - N/A   Mostly Cloudy
8:55 AM 39.2 °F 32.5 °F 14.0 °F 36% 30.48 in 10.0 mi NE 10.4 mph 17.3 mph N/A   Overcast
9:15 AM 39.2 °F 30.8 °F 15.6 °F 38% 30.49 in 10.0 mi NE 15.0 mph 18.4 mph N/A   Mostly Cloudy
9:35 AM 39.2 °F 30.8 °F 16.5 °F 40% 30.51 in 10.0 mi NNE 15.0 mph 19.6 mph N/A   Scattered Clouds
9:55 AM 38.3 °F 29.0 °F 17.8 °F 44% 30.52 in 10.0 mi NNE 17.3 mph - N/A   Mostly Cloudy
10:15 AM 37.9 °F 28.5 °F 18.9 °F 46% 30.54 in 10.0 mi North 17.3 mph - N/A   Mostly Cloudy
10:35 AM 37.4 °F 28.9 °F 18.5 °F 46% 30.55 in 10.0 mi North 13.8 mph - N/A   Mostly Cloudy
10:55 AM 37.0 °F 28.5 °F 21.7 °F 54% 30.55 in 10.0 mi North 13.8 mph - N/A   Mostly Cloudy
11:15 AM 37.4 °F 28.5 °F 19.8 °F 49% 30.58 in 10.0 mi North 15.0 mph 24.2 mph N/A   Mostly Cloudy
11:35 AM 37.4 °F 27.5 °F 19.6 °F 49% 30.57 in 10.0 mi NNE 18.4 mph - N/A   Overcast
11:55 AM 36.5 °F 26.3 °F 19.8 °F 51% 30.58 in 10.0 mi NNE 18.4 mph 26.5 mph N/A   Overcast
12:15 PM 36.3 °F 26.1 °F 19.6 °F 51% 30.57 in 10.0 mi North 18.4 mph 24.2 mph N/A   Mostly Cloudy
12:35 PM 35.8 °F 25.4 °F 19.0 °F 51% 30.57 in 10.0 mi NNE 18.4 mph 24.2 mph N/A   Mostly Cloudy
12:55 PM 35.6 °F 24.2 °F 19.0 °F 51% 30.57 in 10.0 mi North 21.9 mph - N/A   Mostly Cloudy
1:15 PM 34.7 °F 23.1 °F 17.8 °F 50% 30.57 in 10.0 mi North 21.9 mph 26.5 mph N/A   Overcast
1:35 PM 33.8 °F 22.5 °F 16.0 °F 48% 30.58 in 10.0 mi North 19.6 mph 26.5 mph N/A   Overcast
1:55 PM 33.3 °F 21.5 °F 14.0 °F 45% 30.59 in 10.0 mi North 20.7 mph 25.3 mph N/A   Overcast
2:15 PM 32.9 °F 21.3 °F 12.7 °F 43% 30.59 in 10.0 mi North 19.6 mph 25.3 mph N/A   Overcast
2:35 PM 32.7 °F 22.1 °F 11.7 °F 42% 30.59 in 10.0 mi NNE 16.1 mph 24.2 mph N/A   Overcast
2:55 PM 32.2 °F 19.7 °F 9.3 °F 39% 30.60 in 10.0 mi North 21.9 mph 28.8 mph N/A   Overcast
3:15 PM 32.0 °F 19.8 °F 9.1 °F 38% 30.61 in 10.0 mi NNE 20.7 mph 28.8 mph N/A   Overcast
3:35 PM 32.0 °F 21.2 °F 9.7 °F 39% 30.62 in 10.0 mi North 16.1 mph - N/A   Overcast
3:55 PM 32.0 °F 19.5 °F 8.6 °F 38% 30.62 in 10.0 mi North 21.9 mph 27.6 mph N/A   Mostly Cloudy
4:15 PM 32.0 °F 19.8 °F 7.7 °F 36% 30.63 in 10.0 mi North 20.7 mph 25.3 mph N/A   Mostly Cloudy
4:35 PM 31.6 °F 19.7 °F 7.3 °F 36% 30.64 in 10.0 mi North 19.6 mph 25.3 mph N/A   Mostly Cloudy
4:55 PM 31.6 °F 20.0 °F 7.7 °F 37% 30.64 in 10.0 mi North 18.4 mph 21.9 mph N/A   Overcast
5:15 PM 31.1 °F 18.9 °F 6.4 °F 35% 30.66 in 10.0 mi North 19.6 mph - N/A   Overcast
5:35 PM 30.2 °F 18.9 °F 5.7 °F 36% 30.67 in 10.0 mi North 16.1 mph - N/A   Scattered Clouds
5:55 PM 30.2 °F 18.9 °F 5.5 °F 35% 30.67 in 10.0 mi North 16.1 mph - N/A   Clear
6:15 PM 30.0 °F 18.3 °F 3.7 °F 33% 30.69 in 10.0 mi North 17.3 mph 21.9 mph N/A   Clear
6:35 PM 30.0 °F 20.5 °F 4.5 °F 34% 30.69 in 10.0 mi North 11.5 mph 18.4 mph N/A   Clear
6:55 PM 30.2 °F 18.9 °F 3.2 °F 32% 30.70 in 10.0 mi North 16.1 mph - N/A   Clear
7:15 PM 30.2 °F 19.8 °F 3.6 °F 32% 30.71 in 10.0 mi North 13.8 mph - N/A   Clear
7:35 PM 30.2 °F 18.9 °F 3.2 °F 32% 30.72 in 10.0 mi NNE 16.1 mph 20.7 mph N/A   Clear
7:55 PM 30.2 °F 19.3 °F 2.8 °F 31% 30.72 in 10.0 mi North 15.0 mph - N/A   Clear
8:35 PM 29.8 °F 19.8 °F 2.1 °F 31% 30.74 in 10.0 mi NNE 12.7 mph 21.9 mph N/A   Clear
8:55 PM 29.5 °F 19.3 °F 3.0 °F 32% 30.75 in 10.0 mi North 12.7 mph 19.6 mph N/A   Clear
9:15 PM 29.3 °F 17.7 °F 2.3 °F 32% 30.75 in 10.0 mi NNE 16.1 mph - N/A   Clear
9:55 PM 27.5 °F 15.9 °F 5.7 °F 40% 30.77 in 10.0 mi North 15.0 mph - N/A   Clear
10:15 PM 27.0 °F 16.1 °F 6.3 °F 42% 30.77 in 10.0 mi North 12.7 mph - N/A   Clear
10:35 PM 26.6 °F 14.3 °F 7.0 °F 43% 30.77 in 10.0 mi North 16.1 mph - N/A   Clear
10:55 PM 26.1 °F 13.6 °F 6.6 °F 44% 30.78 in 10.0 mi North 16.1 mph - N/A   Clear
11:15 PM 25.7 °F 13.5 °F 6.3 °F 44% 30.78 in 10.0 mi North 15.0 mph - N/A   Clear
11:35 PM 25.7 °F 12.7 °F 5.9 °F 43% 30.77 in 10.0 mi North 17.3 mph - N/A   Clear
11:55 PM 25.5 °F 14.3 °F 6.1 °F 44% 30.77 in 10.0 mi North 12.7 mph - N/A   Clear